SCP
0 0 0 0 0 0 0 0 0 0 0 0 0 0 0 0 0 0 0 0 0 0 0 0 0 0 0 0 0 0 0 0 0 0 0 0 0 1 0 0 0 0 0
0 0 0 0 0 0 0 0 0 0 0 0 0 0 0 0 0 0 0 0 0 0 0 0 0 0 0 0 0 0 0 0 0 0 0 0 0 0 0 0 0 0 0
0 0 0 0 0 0 0 0 0 0 0 0 0 0 0 0 0 0 0 0 0 0 0 0 0 0 0 0 0 0 0 0 0 0 0 0 0 0 0 0 0 0 0
0 0 0 0 0 0 0 0 0 0 0 0 0 0 0 0 0 0 0 0 0 0 0 0 0 0 0 0 0 0 0 0 0 0 0 0 0 0 0 0 0 0 0
0 0 0 0 0 0 0 0 0 0 0 0 0 0 0 0 0 0 0 0 0 0 0 0 0 0 0 0 0 0 0 0 0 0 0 0 0 0 0 0 0 0 0
0 0 0 0 0 0 0 0 0 0 0 0 0 0 0 0 0 0 0 0 0 0 0 0 0 0 0 0 0 0 0 0 0 0 0 0 0 0 0 0 0 0 0
0 0 0 0 0 0 0 0 0 0 0 0 0 0 0 0 0 0 0 0 0 0 0 0 0 0 0 0 0 0 0 0 0 0 0 0 0 0 0 0 0 0 0
0 0 0 0 0 0 0 0 0 0 0 0 0 0 0 0 0 0 0 0 0 0 0 0 0 0 0 0 0 0 0 0 0 0 0 0 0 0 0 0 0 0 0
0 0 0 0 0 0 0 0 0 0 0 0 0 0 0 0 0 0 0 0 0 0 0 0 0 0 0 0 0 0 0 0 0 0 0 0 0 0 0 0 0 0 0
0 0 0 0 0 0 0 0 0 0 0 0 0 0 0 0 0 0 0 0 0 0 0 0 0 0 0 0 0 0 0 0 0 0 0 0 0 0 0 0 0 0 0
0 0 0 0 0 0 0 0 0 0 0 0 0 0 0 0 0 0 0 0 0 0 0 0 0 0 0 0 0 0 0 0 0 0 0 0 0 0 0 0 0 0 0
0 0 0 0 0 0 0 0 0 0 0 0 0 0 0 0 0 0 0 0 0 0 0 0 0 0 0 0 0 0 0 0 0 0 0 0 0 0 0 0 0 0 0
0 0 0 0 0 0 0 0 0 0 0 0 0 0 0 0 0 0 0 0 0 0 0 0 0 0 0 0 0 0 0 0 0 0 0 0 0 0 0 0 0 0 0
0 0 0 0 0 0 0 0 0 0 0 0 0 0 0 0 0 0 0 0 0 0 0 0 0 0 0 0 0 0 0 0 0 0 0 0 0 0 0 0 0 0 0
0 0 0 0 0 0 0 0 0 0 0 0 0 0 -0 0 0 0 0 0 0 0 0 0 0 0 0 0 0 0 0 0 0 0 0 0 0 0 0 0 0 0 0
0 0 0 0 0 0 0 0 0 0 0 0 0 0 -0 -0 0 0 0 0 0 0 0 0 0 0 0 0 0 0 0 0 0 0 0 0 0 0 0 0 0 0 0
0 0 0 0 0 0 0 0 0 0 0 0 0 0 0 0 0 0 0 0 0 0 0 0 0 0 0 0 0 0 0 0 0 0 0 0 0 0 0 0 0 0 0
0 0 0 0 0 0 0 0 0 0 0 0 0 0 0 0 0 0 0 0 0 0 0 0 0 0 0 0 0 0 0 0 0 0 0 0 0 0 0 0 0 0 0
0 0 0 0 0 0 0 0 0 0 0 0 0 0 0 0 0 0 0 0 0 0 0 0 0 0 0 0 0 0 0 0 0 0 0 0 0 0 0 0 0 0 0
0 0 0 0 0 0 0 0 0 0 0 0 0 0 0 0 0 0 0 0 0 0 0 0 0 0 0 0 0 0 0 0 0 0 0 0 0 0 0 0 0 0 0
0 0 0 0 0 0 0 0 0 0 0 0 0 0 0 0 0 0 0 0 0 0 0 0 0 0 0 0 0 0 0 0 0 0 0 0 0 0 0 0 0 0 0
0 0 0 0 0 0 0 0 0 0 0 0 0 0 0 0 0 0 0 0 0 0 0 0 0 0 0 0 0 0 0 0 0 0 0 0 0 0 0 0 0 0 0
0 0 0 0 0 0 0 0 0 0 0 0 0 0 0 0 0 0 0 0 0 0 0 0 0 0 0 0 0 0 0 0 0 0 0 0 0 0 0 0 0 0 0
0 0 0 0 0 0 0 0 0 0 0 0 0 0 0 0 0 0 0 0 0 0 0 0 0 0 0 0 0 0 0 0 0 0 0 0 0 0 0 0 0 0 0
0 0 0 0 0 0 0 0 0 0 0 0 0 0 0 0 0 0 0 0 0 0 0 0 0 0 0 0 0 0 0 0 0 0 0 0 0 0 0 0 0 0 0
0 0 0 0 0 0 0 0 0 0 0 0 0 0 0 -0 0 0 0 0 0 0 0 0 0 0 0 0 0 0 0 0 0 0 0 0 0 0 0 0 0 0 0
Wind_Speed
4 5 6 7 8 9 11 12 13 14 16 17 18 18 18 18 17 17 18 19 20 19 18 19 21 19 16 14 12 11 10 11 16 14 10 14 18 16 19 17 21 26 26
4 5 6 8 9 11 12 12 14 15 16 17 18 19 19 19 18 19 20 19 19 20 20 20 20 16 19 16 12 12 11 12 15 17 13 13 20 18 21 21 21 19 22
4 5 7 8 10 11 12 13 14 16 17 17 17 19 19 19 19 19 20 20 20 20 20 20 20 19 19 15 14 11 9 11 13 14 15 14 16 15 20 18 21 19 20
3 5 8 9 10 12 13 14 14 15 16 17 18 18 19 20 20 20 20 20 20 20 20 20 21 21 20 17 14 11 8 10 10 10 12 15 16 16 18 20 19 18 18
3 5 7 10 11 12 13 13 14 15 16 17 18 19 19 18 18 20 20 20 20 19 19 20 21 23 26 22 14 10 9 9 11 11 12 15 17 17 20 17 20 17 17
3 6 8 11 11 13 13 14 14 15 15 17 18 18 20 17 25 31 27 21 21 20 20 19 20 23 24 31 30 26 19 13 12 13 12 18 18 15 13 18 17 17 17
4 5 8 10 11 13 14 14 15 15 16 17 17 18 20 23 32 32 32 24 21 20 20 18 17 17 20 18 21 25 21 21 23 19 19 21 17 15 18 21 21 23 15
3 4 7 9 11 12 14 14 15 15 15 16 17 18 20 23 32 33 33 24 21 20 20 19 20 20 19 19 15 15 15 15 18 18 20 23 20 18 22 20 20 14 10
4 6 7 8 10 12 14 15 15 15 16 15 16 16 19 22 30 32 32 18 17 18 17 18 19 20 25 28 21 18 18 17 20 26 30 30 27 25 24 19 19 18 17
4 6 7 8 8 11 14 16 15 15 16 16 16 16 18 19 27 31 32 15 15 14 14 16 20 22 26 28 20 18 19 17 14 17 21 23 24 28 31 27 24 22 19
4 6 7 8 9 11 13 14 14 15 15 15 16 15 15 18 24 30 31 17 15 15 14 12 12 22 26 28 25 18 21 18 14 16 16 14 18 22 24 23 22 23 19
4 5 6 7 8 8 11 13 13 13 14 14 14 14 13 15 20 25 31 29 27 17 14 12 11 20 23 25 21 21 26 21 12 13 13 12 16 18 19 20 21 20 17
4 4 6 8 8 9 10 12 11 11 11 13 13 14 15 14 17 26 28 30 31 20 15 21 23 25 24 19 23 25 18 11 11 12 12 9 12 15 15 12 12 11 10
3 4 5 7 9 10 8 8 9 10 11 13 14 15 17 16 16 16 16 16 20 18 14 17 23 24 20 17 14 13 10 9 10 11 10 7 10 12 13 11 11 11 11
3 4 5 6 7 9 9 8 10 9 13 15 12 14 17 18 23 34 26 18 16 16 15 10 8 8 8 8 8 8 8 9 11 11 9 8 10 12 13 13 10 13 10
4 4 4 5 6 7 8 10 13 15 21 22 23 22 18 25 34 34 34 30 30 29 14 6 6 7 9 8 6 7 8 10 11 10 10 11 12 14 13 12 13 14 13
3 2 3 5 6 7 7 8 10 13 19 21 25 28 29 32 33 34 34 30 29 26 14 12 11 11 10 11 10 8 8 9 9 10 10 11 12 12 14 14 15 14 11
3 1 2 4 5 6 6 6 7 10 13 14 19 27 32 33 32 34 34 25 19 18 14 13 13 12 12 12 11 11 11 10 8 9 10 10 11 12 14 15 14 14 11
3 1 2 3 4 5 5 5 6 8 9 11 13 18 24 27 26 31 28 17 16 17 15 14 14 13 13 12 12 11 11 12 7 8 9 10 11 12 12 14 13 15 11
2 1 2 3 4 4 4 5 7 8 9 10 11 14 16 16 15 18 17 16 16 16 17 16 15 15 14 13 13 12 12 12 7 6 9 10 11 12 13 15 15 15 12
3 1 2 2 3 3 4 5 5 6 7 9 9 14 23 13 13 15 15 16 16 17 17 17 16 17 16 14 14 15 15 12 12 8 5 9 11 10 11 12 13 13 12
3 2 1 1 2 3 4 4 4 5 7 8 9 11 20 13 12 13 13 14 15 15 16 16 16 17 17 16 16 15 15 14 12 11 9 4 9 10 11 11 12 13 14
4 3 1 1 2 3 4 4 4 5 6 6 8 10 11 11 12 13 13 14 14 15 15 16 16 18 18 17 16 15 15 15 12 11 11 7 6 9 9 10 13 15 15
4 3 3 1 1 3 3 4 4 5 6 7 7 8 9 10 11 13 13 13 14 14 15 16 17 23 29 23 18 17 17 18 16 11 14 8 2 4 7 8 11 13 13
4 3 3 2 2 2 2 3 4 5 6 7 7 8 9 10 11 12 13 13 15 15 18 18 17 20 25 30 28 25 28 30 27 18 15 13 12 9 3 4 6 9 8
4 4 3 2 2 1 1 3 3 4 5 6 6 7 8 9 10 11 11 13 14 14 16 15 22 25 24 23 29 33 33 32 31 29 19 16 17 15 12 8 7 3 4
Wind_Direction
266 271 286 294 298 297 294 292 293 292 291 290 291 291 290 289 286 280 274 273 270 269 268 267 266 262 270 260 241 233 235 240 253 257 250 271 254 192 175 170 163 162 162
266 289 305 307 305 298 294 295 296 294 292 292 294 293 292 290 287 282 278 273 270 270 269 268 268 264 267 265 244 231 233 238 247 253 251 262 250 196 176 170 166 167 164
288 314 312 307 301 298 299 299 297 295 295 295 296 294 293 291 288 282 278 274 271 269 268 267 269 266 265 267 252 235 235 244 246 243 244 250 249 198 173 168 166 163 160
322 321 310 306 304 302 300 298 298 298 299 299 297 296 295 292 288 284 280 276 272 269 267 266 265 262 259 265 258 239 237 246 250 244 239 246 242 203 174 166 164 161 158
326 315 306 307 305 302 300 300 302 302 302 300 299 298 295 291 284 282 280 276 272 269 266 264 263 262 257 258 261 246 233 242 247 244 244 250 237 199 176 165 163 157 157
314 312 314 308 307 306 305 309 310 308 306 302 300 300 297 293 292 291 288 280 275 270 268 264 263 262 259 256 258 257 245 242 248 245 251 254 231 195 170 162 158 156 158
316 311 306 308 309 311 314 314 313 311 306 304 306 306 301 298 297 296 293 287 278 269 265 264 262 261 260 254 258 261 255 251 251 251 247 255 234 185 165 163 164 163 158
303 295 304 315 315 317 316 313 312 310 310 309 308 304 303 302 303 302 299 293 283 269 258 256 259 260 260 259 257 258 257 254 256 253 247 248 238 189 170 161 155 137 124
315 314 318 321 319 318 314 312 311 311 308 304 305 308 305 302 304 304 304 295 287 275 261 254 253 254 256 257 257 258 261 262 268 263 259 248 228 188 164 150 149 147 150
316 317 323 323 317 312 308 308 310 308 303 307 309 306 302 302 305 311 312 302 301 296 280 262 251 249 251 252 249 250 255 261 270 278 271 239 202 174 164 162 160 158 154
318 326 326 320 314 306 303 305 306 306 306 307 308 311 311 311 313 315 313 312 305 300 295 280 256 253 252 250 247 245 250 258 269 274 267 222 182 172 168 165 165 161 159
349 336 320 311 309 309 304 304 307 308 310 314 316 321 321 318 316 315 315 312 307 298 292 290 279 273 268 261 254 246 247 250 256 263 257 212 177 171 170 167 167 166 165
359 334 315 315 317 309 304 307 312 312 319 323 326 329 326 325 323 321 316 313 309 302 289 288 290 288 285 269 259 251 238 235 245 251 245 210 176 166 161 154 151 141 124
12 345 334 330 318 314 311 314 314 321 328 329 334 332 327 329 327 325 323 317 310 301 290 285 287 287 281 262 253 245 229 231 240 246 234 195 164 160 162 155 149 144 135
42 11 345 323 309 313 317 315 318 330 332 337 338 332 330 331 334 338 338 330 324 312 296 276 276 285 281 261 242 237 232 232 236 237 218 180 165 165 166 161 154 155 153
56 22 346 323 315 314 315 317 332 345 342 345 347 343 337 340 342 347 349 349 349 351 349 336 328 325 317 303 269 246 236 236 234 223 203 179 171 169 165 161 164 167 164
84 18 334 322 317 317 319 329 333 337 343 347 349 348 354 354 354 356 359 1 3 9 14 8 359 349 338 332 325 303 270 251 228 210 193 179 171 169 168 169 172 170 165
89 19 325 305 306 306 313 330 338 338 336 336 343 348 357 359 359 2 4 4 6 11 7 4 355 347 342 337 329 321 309 283 228 199 185 176 171 170 171 173 174 172 164
96 43 320 302 299 298 312 335 345 341 336 333 338 345 355 358 1 5 7 7 4 2 0 1 356 350 345 339 331 322 313 297 247 187 177 172 172 171 173 173 171 167 162
101 33 351 310 307 315 337 358 357 347 343 341 345 340 348 355 360 0 1 360 1 0 358 359 358 353 349 346 342 337 332 324 297 196 176 173 173 177 175 172 174 176 176
130 82 355 324 318 325 352 1 348 341 342 341 339 339 0 358 355 357 358 356 355 357 357 357 359 357 354 353 352 349 345 340 338 321 198 174 174 176 178 177 176 176 171
138 129 78 331 320 337 1 358 345 340 341 342 338 340 353 357 354 355 356 355 351 351 354 355 0 3 358 355 357 356 352 346 342 339 322 222 177 176 176 177 177 178 177
139 135 124 17 336 354 12 6 355 349 343 341 340 342 346 350 350 350 351 351 350 351 353 356 359 5 4 1 1 5 0 350 338 331 322 289 196 179 175 177 179 179 181
138 143 143 117 32 25 16 5 360 356 344 342 343 342 342 342 344 346 346 346 348 350 354 358 358 2 7 8 6 8 11 5 355 350 348 346 324 178 176 179 182 184 183
142 149 145 122 75 37 10 7 6 355 345 343 343 341 339 339 341 343 343 344 344 348 352 356 359 358 6 10 13 12 15 17 16 15 13 21 26 27 41 166 176 175 177
152 154 154 142 116 65 20 12 3 353 343 340 337 333 334 336 337 340 341 343 342 344 346 352 356 357 4 13 15 16 17 23 24 24 26 32 37 34 32 35 43 105 155